Temperature
24 23 23 22 25 28 29 29 30 29 29 29 28 27 26 25 24 22 21 20 20 19 19 19 19 18 18 18 18 18 18 18 18 18 18 18 18 18 18 18 18 18 18 18 18 18 18 18 18
24 23 23 25 27 28 29 30 29 29 29 29 28 27 26 24 23 22 21 20 20 19 19 19 19 19 18 18 18 18 18 18 18 18 18 18 18 18 18 18 18 18 18 18 18 18 18 18 18
24 24 26 28 30 30 29 30 30 30 29 29 28 26 25 24 23 22 21 20 20 19 19 19 19 19 18 18 18 18 18 18 18 18 18 18 18 18 18 18 18 18 18 18 18 18 18 18 18
24 26 28 30 31 31 31 31 31 30 29 29 28 26 24 23 22 22 21 21 20 19 19 19 19 19 19 19 18 18 18 18 18 18 18 18 18 18 18 18 18 18 18 18 18 18 18 18 18
26 28 30 31 31 32 32 32 31 30 30 29 27 25 23 23 22 22 21 21 20 20 19 20 19 19 19 19 18 18 18 18 18 18 18 18 18 18 18 18 18 18 18 18 18 18 18 18 18
28 31 31 31 31 32 32 32 31 30 29 28 27 25 23 22 22 22 22 21 21 20 19 20 19 19 19 19 18 18 18 18 18 18 18 18 18 18 18 18 18 18 18 18 18 18 18 18 18
31 32 32 32 32 32 32 32 31 31 30 29 27 26 24 23 22 22 22 21 21 20 19 19 19 19 19 19 19 18 18 18 18 18 18 18 18 18 18 18 18 18 18 18 18 18 18 18 18
32 33 33 33 32 32 32 32 31 30 30 29 28 27 24 23 22 22 22 21 21 21 20 19 19 19 19 19 19 19 18 18 18 18 18 18 18 18 18 18 18 18 18 18 18 18 18 18 18
34 34 33 33 32 32 32 32 31 30 30 29 28 27 24 23 23 22 22 21 21 21 20 20 19 19 18 18 19 19 18 18 18 18 18 18 18 18 17 18 18 18 18 18 18 18 18 18 18
35 34 34 34 34 33 33 32 31 31 30 28 27 25 24 23 23 23 22 22 21 21 20 20 20 19 19 18 18 18 18 18 18 18 18 18 17 17 17 18 18 18 18 18 18 18 18 18 18
36 35 35 35 34 34 33 32 32 31 30 29 27 25 24 24 24 23 23 22 22 21 21 20 20 20 19 19 19 18 18 18 18 18 18 17 18 18 17 18 18 18 18 18 18 17 18 18 18
36 36 35 35 34 34 34 33 32 32 30 29 27 26 25 24 24 24 24 23 22 22 21 21 20 19 19 19 19 18 18 18 18 18 18 18 18 18 18 18 17 17 17 18 17 17 17 17 18
36 36 35 35 34 34 34 33 32 31 30 29 27 26 26 25 25 24 24 23 22 22 21 20 20 19 19 19 19 19 19 18 18 18 18 18 18 18 18 18 18 17 17 17 17 17 17 17 17
36 36 35 35 35 34 34 33 33 31 30 29 28 27 26 26 25 24 24 23 22 22 21 20 20 20 19 19 19 19 19 19 18 18 18 18 18 18 18 18 18 18 18 18 17 18 18 18 18
35 35 35 35 35 34 34 33 33 31 30 29 28 27 27 26 25 25 24 23 22 21 21 20 20 19 19 19 19 19 19 19 19 18 18 18 18 18 18 18 18 18 18 18 18 18 18 18 18
35 34 33 35 35 35 34 32 33 31 30 30 29 28 27 26 26 25 24 23 22 22 21 21 20 20 19 19 19 19 19 19 19 18 18 18 18 18 18 18 18 18 18 18 18 18 18 18 18
34 33 34 34 36 35 34 32 33 32 31 30 29 28 27 26 26 25 24 23 22 22 21 21 21 20 20 19 19 19 19 19 19 19 19 18 18 18 18 18 18 18 18 18 18 18 18 18 18
33 34 34 35 35 35 34 34 33 33 32 31 30 29 28 27 26 25 25 23 23 22 21 21 21 20 20 19 19 19 19 19 19 19 19 18 18 18 18 18 18 18 18 18 18 18 18 18 18
34 34 34 35 36 35 34 34 34 33 33 32 31 30 28 27 27 26 25 24 23 22 21 21 21 21 20 20 19 19 19 19 19 19 19 19 19 18 18 18 18 18 18 18 18 18 18 18 18
34 34 34 35 36 35 34 34 34 34 33 32 31 30 29 28 27 26 25 24 23 22 22 21 21 21 21 20 20 20 20 19 19 19 19 19 19 19 18 18 18 18 18 18 18 18 18 18 18
34 34 34 34 35 35 34 33 34 34 33 33 32 31 30 29 28 26 25 25 24 23 22 22 22 21 21 21 20 20 20 20 20 19 19 19 19 19 19 18 18 18 18 18 18 18 18 18 18
34 35 35 35 34 33 34 32 33 34 33 33 33 32 31 30 29 27 26 25 25 24 23 22 22 22 21 21 20 20 20 20 20 20 19 19 19 19 19 19 19 18 18 18 18 18 18 18 18
35 36 35 35 34 33 33 33 33 33 32 33 33 32 32 31 30 28 27 26 25 24 23 23 22 22 22 21 21 20 20 20 20 20 19 19 19 19 19 19 19 19 18 18 18 18 18 18 18
35 35 35 34 34 32 33 33 32 33 33 33 34 33 32 31 30 29 28 27 26 25 24 23 23 22 22 22 21 21 20 20 20 20 20 19 19 19 19 19 19 19 18 18 18 18 18 18 18
35 33 32 31 31 31 33 32 32 34 34 34 34 33 32 31 30 29 28 27 26 25 24 24 23 23 22 22 22 21 21 20 20 20 20 19 19 19 19 19 19 19 19 19 19 18 18 18 18
34 33 31 30 30 31 32 31 32 34 34 34 34 33 32 31 30 29 28 27 26 25 25 24 23 23 23 22 22 21 21 21 20 20 20 20 20 19 19 19 19 19 19 19 19 18 18 18 18
33 33 34 33 31 31 31 31 32 33 34 34 34 33 32 31 30 29 28 27 26 25 25 24 23 23 23 22 22 22 21 21 21 20 20 20 20 20 20 19 19 19 19 19 18 18 18 18 18
34 34 33 32 30 30 31 31 31 31 32 33 33 32 32 31 30 29 28 27 26 25 25 24 23 23 23 22 22 21 21 21 21 21 20 20 20 20 20 19 19 19 19 19 18 18 18 18 18
33 33 32 32 32 31 30 30 31 31 31 32 32 32 31 31 30 29 28 27 26 25 25 24 23 23 22 22 22 21 21 21 21 21 21 20 20 20 20 19 19 19 19 19 18 18 18 18 18
34 33 33 31 30 31 31 30 32 31 32 31 31 31 30 30 29 29 28 27 26 25 24 24 23 23 22 22 22 21 21 21 21 21 21 20 20 20 19 19 19 19 19 18 18 18 18 18 18
Wind_Speed
11 12 10 6 5 2 13 15 15 14 14 13 14 14 17 15 11 11 10 15 16 16 15 15 13 13 12 11 11 11 11 11 12 12 12 12 12 12 12 12 12 12 11 11 11 11 11 11 11
10 11 8 5 2 9 14 14 14 12 11 12 16 18 18 16 15 13 12 13 15 16 16 15 14 13 12 11 11 11 11 11 12 12 12 12 12 11 11 11 11 11 11 10 10 10 10 10 10
11 12 6 3 9 13 14 13 12 12 10 12 15 16 13 12 13 12 13 15 16 16 17 15 14 13 13 12 12 11 11 11 11 11 11 11 11 11 11 10 10 10 10 10 10 10 10 10 9
7 7 4 4 16 16 14 11 12 12 11 12 14 12 13 12 13 13 14 16 17 17 17 15 14 14 13 12 12 11 11 11 11 10 11 10 10 10 10 10 9 10 10 9 9 10 10 9 8
8 5 1 10 16 15 12 12 13 13 13 16 17 16 15 14 15 15 13 14 15 16 17 15 14 14 13 12 12 11 11 10 10 10 10 10 9 9 9 9 9 9 9 9 9 9 9 8 7
6 4 4 12 16 14 12 12 13 14 13 15 17 16 12 13 13 13 13 12 14 16 16 16 15 14 13 12 11 11 10 10 9 9 9 8 8 8 8 7 8 8 8 8 8 9 8 7 6
8 3 7 13 14 13 12 12 13 13 13 12 15 14 12 13 12 12 12 11 12 14 15 15 15 14 13 12 11 10 10 9 9 9 8 8 7 7 7 7 7 7 8 8 8 8 8 7 6
6 2 8 11 13 13 13 13 13 13 12 9 10 11 13 15 13 12 12 11 10 11 12 13 15 15 13 12 11 11 10 9 9 9 8 8 7 7 8 8 8 7 8 8 8 8 7 7 6
6 2 7 10 11 12 12 13 12 12 12 12 13 17 18 18 15 13 12 11 9 9 9 10 11 12 13 13 13 12 10 9 9 8 8 8 7 8 8 8 9 8 8 8 8 8 7 7 7
1 6 10 11 11 11 11 10 10 11 11 15 17 19 19 17 14 13 12 11 11 10 9 8 9 9 10 10 12 11 10 10 8 8 8 7 5 5 7 9 9 8 8 8 8 9 8 8 7
5 8 9 10 11 10 9 9 9 9 11 14 17 18 17 16 13 12 12 11 11 10 9 9 8 7 7 6 8 6 7 8 8 8 7 5 4 5 7 7 7 8 9 8 8 9 9 9 7
4 6 7 8 8 7 8 9 9 9 13 16 17 18 16 14 12 11 11 11 11 10 10 10 8 6 4 5 5 5 5 5 5 7 6 5 3 2 3 4 5 6 6 6 7 7 7 6 6
2 4 5 6 6 7 7 8 9 13 15 17 18 17 15 14 12 10 10 10 10 10 9 9 8 6 4 3 2 4 4 4 6 7 7 6 3 3 3 2 3 4 5 6 5 4 4 3 4
0 2 3 5 5 6 5 7 8 13 16 17 17 16 14 13 13 12 11 10 10 9 9 9 9 8 6 4 3 2 4 5 5 6 7 6 4 3 2 2 2 2 3 3 3 3 2 3 3
3 3 3 5 5 5 4 5 8 14 16 16 16 15 14 13 12 12 11 10 10 9 8 8 9 9 7 6 6 4 4 6 4 5 7 7 5 5 3 2 2 2 3 4 3 3 3 4 4
7 7 7 6 6 6 5 4 10 14 15 15 15 15 14 12 13 12 12 10 10 10 9 8 8 10 8 5 4 2 3 4 4 5 6 7 7 7 5 3 3 4 4 3 3 3 3 3 3
11 10 8 7 7 6 5 6 12 14 15 15 14 15 15 13 12 12 13 12 10 10 9 8 5 8 9 7 5 3 2 3 4 5 5 6 7 8 5 3 3 5 3 3 4 3 3 3 3
11 8 7 6 7 5 5 7 12 14 15 15 15 15 15 15 14 13 13 13 12 11 9 9 7 6 6 6 5 4 3 4 4 4 5 6 6 6 5 3 4 4 3 3 2 2 3 3 4
12 10 8 3 4 4 5 7 11 13 14 15 15 15 16 15 15 15 14 14 14 12 11 9 9 8 6 5 5 5 5 4 4 4 7 7 7 6 4 3 3 3 3 3 3 2 4 4 3
13 11 10 5 4 5 7 7 9 11 12 14 16 15 16 16 16 15 15 14 15 13 12 11 9 9 8 6 4 3 3 3 4 3 5 7 7 7 6 5 4 4 3 3 3 3 3 3 3
14 12 11 9 7 8 7 8 10 12 11 12 14 15 16 17 18 17 16 15 15 14 13 12 11 10 9 8 5 4 3 3 2 4 4 5 7 7 5 5 5 4 4 3 4 4 5 3 3
14 13 12 11 9 9 8 8 9 11 12 13 13 14 16 16 18 18 17 15 16 15 14 11 11 10 9 8 7 7 5 5 4 4 4 5 6 6 6 6 5 4 3 3 4 4 4 4 4
13 13 12 12 11 12 12 10 7 11 11 12 13 14 14 15 17 19 19 16 16 16 15 13 11 10 10 9 8 7 6 5 4 4 4 4 5 5 6 5 4 4 4 4 3 2 3 3 3
13 14 13 13 13 14 14 12 7 6 8 9 10 11 12 14 15 16 17 15 14 14 14 14 13 11 10 10 8 8 7 5 3 3 4 4 4 5 6 5 5 5 4 4 3 3 4 4 3
15 13 11 12 12 12 12 11 6 6 7 7 8 9 11 12 13 13 14 15 14 14 14 14 14 12 12 11 9 8 7 6 5 5 5 5 4 4 6 6 5 4 4 4 4 4 4 4 4
17 17 14 13 12 10 9 9 6 5 6 6 7 8 10 11 13 14 13 12 11 13 13 13 14 13 12 11 9 8 8 7 6 7 5 5 4 4 5 6 5 5 4 4 4 4 5 4 4
18 18 17 16 15 13 10 6 5 5 5 6 6 7 8 9 11 13 13 13 12 11 11 11 12 12 11 11 9 8 8 7 6 6 6 5 4 4 5 6 6 5 5 5 4 3 3 3 3
19 16 12 13 12 14 11 8 6 6 5 5 5 5 5 8 10 11 12 12 12 12 10 10 11 10 10 10 10 9 9 8 6 5 5 5 4 4 4 5 5 5 5 5 4 3 3 3 3
18 19 15 11 12 13 11 4 3 4 3 4 4 5 5 4 7 9 10 11 11 11 10 10 10 10 9 9 8 7 8 8 7 6 6 5 4 4 4 5 5 5 5 5 4 5 4 4 3
17 18 17 13 11 12 12 5 3 4 3 4 4 6 6 5 5 8 9 9 8 9 10 9 10 10 10 9 7 7 6 7 7 7 6 6 5 5 5 5 5 5 5 5 5 5 4 3 3
Wind_Direction
184 199 209 230 246 87 64 63 61 63 62 60 61 69 65 58 72 94 111 113 115 115 115 111 107 104 102 103 107 109 107 107 107 107 108 108 109 109 109 109 109 109 110 109 108 107 108 108 113
204 211 221 242 252 72 65 66 67 67 73 76 71 74 73 70 83 102 111 116 118 117 117 112 112 108 106 106 109 112 108 106 105 107 108 109 109 111 111 111 112 113 112 111 110 111 113 114 118
235 238 252 246 59 66 71 72 80 79 75 80 75 65 66 84 94 107 118 121 115 111 112 114 116 112 110 108 107 107 107 107 106 105 106 105 107 111 114 114 114 114 114 113 112 116 117 118 122
236 233 234 67 69 70 74 79 87 87 80 82 86 79 73 82 101 113 122 120 117 117 116 117 118 117 116 112 109 108 107 107 108 107 105 106 107 111 116 118 118 117 117 116 115 120 121 123 128
245 255 169 78 76 75 76 77 79 78 77 82 89 93 88 89 107 119 120 118 119 118 118 123 123 122 121 118 115 113 111 110 110 109 109 108 109 111 114 120 120 121 123 124 125 126 127 129 136
255 257 80 81 80 77 78 82 87 89 90 97 103 103 102 116 120 123 119 121 121 122 121 126 127 127 125 123 122 121 121 120 119 117 117 116 116 116 118 124 128 130 132 131 133 134 136 140 149
265 316 75 87 88 82 80 79 81 90 91 95 109 111 123 131 131 126 124 121 123 126 129 137 138 135 133 131 129 126 126 128 128 127 128 127 128 129 132 137 140 142 141 141 141 144 146 153 166
266 355 61 81 90 87 87 85 84 88 91 104 114 116 131 136 136 131 128 122 121 126 131 143 145 145 147 142 140 135 133 136 138 139 141 142 148 154 155 152 153 154 153 154 154 158 160 170 187
274 31 70 79 89 97 96 96 97 99 97 84 80 109 130 137 139 141 134 129 130 128 131 138 140 150 151 147 148 149 148 150 153 156 162 168 176 168 169 156 157 163 165 165 167 171 177 187 204
35 68 70 82 97 105 105 106 112 108 104 100 100 112 130 141 149 149 144 144 144 143 137 133 137 143 146 144 148 160 159 159 175 162 174 185 177 157 149 149 161 170 174 176 182 187 192 203 209
56 70 76 84 97 110 116 117 113 117 119 121 127 134 141 148 155 153 151 148 146 144 142 143 140 135 134 134 151 152 147 159 169 167 173 168 156 148 142 152 164 177 182 187 185 196 206 208 209
65 74 79 87 98 107 107 109 105 98 109 124 133 141 147 155 157 156 150 143 144 143 147 142 132 124 115 123 133 148 155 159 155 156 173 159 154 150 146 157 169 179 184 184 189 199 213 214 213
62 91 98 103 112 104 109 115 115 112 118 128 136 145 153 160 158 150 139 139 141 143 142 130 123 120 117 112 172 155 153 159 156 158 175 168 166 165 161 172 174 188 185 184 190 201 201 205 225
93 96 119 126 133 128 130 135 131 128 131 136 144 153 160 160 156 149 146 146 142 142 137 131 137 141 146 165 193 183 164 159 159 160 165 172 167 149 162 170 160 190 189 182 181 195 200 223 231
239 238 218 175 166 143 149 154 140 137 142 148 154 158 160 162 158 157 155 155 150 148 145 145 153 151 166 178 192 191 186 169 166 158 164 176 176 158 167 205 196 195 190 193 198 208 208 221 227
253 242 232 199 178 164 198 168 138 147 155 159 162 162 164 166 166 163 158 157 154 153 153 170 170 158 168 184 198 198 199 158 155 173 174 181 180 176 184 204 203 192 204 200 198 214 224 233 239
252 240 221 195 185 181 203 156 155 163 165 167 169 168 167 170 174 166 165 161 158 155 159 169 166 159 170 177 189 203 189 167 175 180 176 181 185 184 189 198 193 195 207 209 223 192 210 228 240
256 253 235 204 180 195 210 176 166 169 172 172 174 174 173 177 180 172 171 165 162 160 163 167 172 172 173 175 185 197 199 187 189 183 176 184 192 188 194 200 197 212 211 211 225 202 215 228 236
259 267 267 247 194 211 222 203 175 173 179 174 176 179 180 182 179 173 175 172 170 168 169 173 181 174 183 188 192 191 196 200 192 190 179 188 193 193 201 225 198 223 220 212 221 226 232 236 233
256 262 267 252 218 237 242 237 189 177 189 179 180 182 184 181 178 174 178 179 176 173 173 176 182 178 186 191 195 199 200 210 194 192 171 182 188 196 207 205 215 220 222 223 230 233 249 256 229
251 256 257 258 246 238 246 247 213 185 185 184 185 185 188 186 180 177 183 185 181 177 178 185 184 181 189 187 189 202 191 219 209 184 182 189 190 198 213 198 220 226 223 211 217 228 236 251 255
251 253 256 258 262 267 246 248 220 193 186 187 188 189 190 188 181 178 182 189 186 181 181 178 175 178 182 189 200 199 199 205 208 193 186 188 191 202 208 204 211 219 231 216 222 216 232 241 257
255 259 262 263 260 263 260 259 227 189 188 193 189 193 193 187 183 179 184 188 187 182 178 175 172 177 180 190 201 208 213 214 209 189 180 192 197 206 209 203 205 210 225 228 225 216 240 251 252
253 256 257 259 258 251 249 254 238 200 188 188 186 191 189 185 183 181 182 178 182 179 176 173 172 177 182 190 198 203 214 221 220 196 183 196 200 205 204 201 198 207 222 220 213 222 234 240 253
237 244 247 248 245 247 245 251 223 185 188 189 180 184 180 176 177 176 176 176 177 178 177 173 172 179 184 190 198 201 208 212 213 214 206 210 209 202 197 200 185 202 217 218 213 220 234 232 236
235 239 241 251 260 262 250 242 224 213 179 167 169 167 167 175 177 176 174 170 173 178 176 173 172 178 184 189 194 197 202 210 211 215 221 208 212 208 182 176 181 193 208 224 208 223 229 220 227
243 242 247 254 255 262 256 241 230 191 163 152 144 147 161 171 174 172 170 170 170 173 171 171 168 175 183 188 188 193 198 206 214 206 208 217 217 203 175 175 187 197 205 220 222 225 239 226 227
243 252 253 253 260 261 247 232 213 167 166 148 136 130 133 160 164 166 166 169 172 174 168 164 164 173 181 186 192 195 194 200 209 209 210 213 213 210 174 180 192 199 202 207 214 225 226 217 225
229 238 246 256 261 262 260 237 170 123 161 157 146 124 123 130 155 156 158 162 165 166 165 167 166 171 178 188 194 195 190 196 200 203 209 213 215 202 193 195 200 201 203 206 207 220 212 215 225
241 238 237 241 251 264 269 253 158 120 133 143 126 99 96 99 115 138 144 143 152 161 166 169 174 180 184 186 187 193 190 193 200 205 204 202 203 204 201 202 202 205 206 200 205 221 216 212 217
Height
1480 1481 1482 1484 1483 1479 1479 1475 1473 1476 1478 1480 1481 1483 1489 1493 1498 1511 1513 1513 1514 1515 1516 1517 1518 1519 1520 1522 1523 1525 1526 1528 1529 1530 1532 1533 1534 1536 1537 1538 1540 1541 1542 1543 1545 1546 1547 1548 1549
1480 1481 1484 1482 1479 1485 1485 1477 1478 1479 1481 1482 1484 1488 1492 1499 1504 1509 1513 1515 1516 1517 1518 1519 1520 1521 1522 1524 1525 1527 1528 1530 1531 1532 1534 1535 1536 1538 1539 1540 1541 1543 1544 1545 1546 1547 1548 1549 1550
1481 1483 1484 1476 1473 1481 1484 1477 1478 1480 1482 1483 1488 1493 1498 1504 1508 1511 1515 1516 1518 1519 1520 1521 1522 1523 1525 1526 1528 1529 1530 1531 1532 1534 1535 1537 1538 1539 1540 1542 1543 1544 1545 1546 1547 1548 1549 1550 1551
1482 1482 1479 1473 1477 1474 1475 1476 1477 1480 1483 1485 1489 1497 1504 1508 1510 1513 1516 1518 1520 1521 1522 1523 1524 1525 1527 1528 1529 1531 1532 1533 1534 1535 1537 1538 1539 1540 1541 1543 1544 1545 1546 1547 1548 1549 1550 1551 1552
1483 1479 1474 1475 1475 1473 1473 1476 1478 1481 1484 1488 1494 1502 1508 1512 1513 1515 1518 1520 1521 1523 1523 1524 1526 1527 1528 1530 1531 1532 1533 1534 1536 1537 1538 1539 1540 1541 1542 1544 1545 1546 1547 1548 1549 1550 1551 1552 1553
1479 1471 1475 1480 1478 1475 1475 1478 1480 1484 1488 1491 1497 1503 1511 1515 1516 1518 1520 1522 1523 1524 1525 1526 1527 1529 1530 1531 1532 1533 1535 1536 1537 1538 1539 1540 1541 1542 1543 1544 1546 1547 1548 1549 1550 1551 1552 1553 1554
1476 1469 1472 1474 1479 1479 1478 1479 1482 1485 1489 1492 1496 1503 1511 1515 1518 1519 1522 1523 1525 1526 1526 1527 1529 1530 1531 1532 1534 1535 1536 1537 1538 1539 1540 1541 1542 1543 1544 1545 1546 1547 1548 1549 1550 1551 1552 1553 1555
1470 1467 1471 1472 1478 1481 1479 1482 1485 1488 1491 1494 1496 1501 1510 1515 1518 1520 1523 1525 1526 1528 1529 1529 1530 1531 1532 1533 1535 1536 1537 1538 1539 1540 1541 1542 1543 1543 1544 1545 1546 1547 1548 1550 1551 1552 1553 1554 1555
1468 1470 1475 1474 1477 1479 1479 1483 1487 1490 1492 1495 1497 1502 1509 1514 1518 1521 1523 1526 1528 1529 1530 1531 1532 1533 1534 1535 1536 1537 1538 1539 1540 1541 1542 1543 1543 1544 1545 1546 1547 1548 1549 1550 1551 1552 1554 1555 1556
1464 1472 1471 1468 1471 1476 1479 1483 1486 1489 1493 1498 1503 1507 1511 1515 1518 1521 1523 1525 1528 1529 1531 1532 1534 1535 1536 1537 1537 1538 1539 1540 1541 1542 1543 1544 1545 1546 1546 1547 1547 1548 1549 1550 1552 1553 1554 1555 1556
1465 1468 1467 1468 1472 1475 1478 1481 1484 1487 1492 1498 1503 1508 1512 1515 1518 1520 1522 1525 1527 1529 1531 1532 1534 1535 1537 1537 1538 1539 1540 1541 1542 1543 1544 1545 1545 1546 1547 1547 1548 1548 1549 1551 1552 1553 1554 1555 1557
1466 1466 1468 1470 1473 1474 1477 1480 1484 1487 1492 1498 1503 1507 1511 1515 1517 1519 1522 1525 1527 1529 1531 1532 1534 1535 1536 1538 1539 1540 1541 1542 1542 1543 1544 1545 1546 1546 1547 1547 1548 1548 1550 1551 1552 1553 1554 1556 1557
1467 1468 1469 1471 1473 1475 1477 1480 1484 1488 1494 1498 1503 1508 1511 1514 1517 1519 1522 1525 1527 1529 1531 1532 1533 1534 1535 1537 1539 1540 1541 1542 1543 1543 1544 1545 1546 1546 1547 1548 1548 1549 1550 1551 1552 1553 1554 1555 1556
1468 1468 1469 1471 1473 1475 1477 1479 1483 1488 1493 1498 1503 1507 1510 1513 1516 1519 1522 1524 1526 1528 1530 1531 1532 1533 1535 1536 1538 1539 1541 1542 1543 1544 1544 1545 1546 1546 1547 1548 1548 1549 1550 1551 1552 1553 1554 1555 1555
1468 1469 1470 1469 1470 1472 1476 1480 1481 1487 1492 1497 1502 1505 1509 1512 1515 1518 1521 1523 1525 1528 1529 1531 1532 1533 1534 1536 1537 1539 1541 1542 1543 1543 1544 1545 1545 1546 1547 1547 1548 1549 1550 1550 1551 1552 1553 1554 1554
1468 1472 1477 1468 1467 1470 1477 1487 1481 1486 1490 1495 1499 1504 1508 1511 1514 1517 1520 1522 1524 1526 1528 1530 1532 1532 1534 1536 1537 1539 1540 1542 1542 1542 1543 1544 1545 1545 1546 1547 1547 1548 1549 1550 1551 1551 1552 1553 1553
1472 1477 1475 1469 1463 1465 1471 1480 1479 1483 1487 1491 1496 1501 1505 1510 1513 1516 1518 1521 1523 1525 1527 1529 1531 1532 1533 1535 1536 1538 1539 1541 1541 1542 1543 1543 1544 1545 1545 1546 1547 1547 1548 1549 1550 1550 1551 1551 1552
1478 1473 1470 1467 1462 1463 1469 1472 1474 1477 1482 1487 1492 1497 1502 1506 1510 1514 1517 1519 1522 1524 1525 1527 1529 1531 1532 1534 1535 1537 1538 1539 1540 1541 1542 1542 1543 1544 1545 1545 1546 1547 1547 1548 1549 1549 1549 1550 1550
1466 1468 1469 1463 1458 1462 1467 1468 1469 1473 1476 1482 1488 1493 1498 1503 1507 1511 1514 1517 1520 1522 1524 1526 1527 1529 1531 1532 1534 1535 1536 1538 1539 1539 1540 1540 1541 1542 1543 1544 1545 1545 1546 1546 1547 1547 1548 1548 1549
1463 1468 1468 1461 1457 1461 1466 1466 1464 1468 1472 1476 1482 1488 1493 1498 1503 1508 1511 1515 1517 1519 1521 1523 1525 1527 1529 1531 1532 1534 1535 1536 1537 1538 1539 1539 1540 1541 1542 1542 1543 1544 1544 1545 1545 1546 1546 1547 1547
1463 1467 1466 1465 1459 1458 1465 1472 1466 1464 1469 1473 1477 1482 1488 1493 1498 1503 1508 1511 1514 1516 1519 1521 1523 1525 1527 1529 1531 1533 1534 1535 1536 1537 1537 1538 1539 1539 1540 1541 1542 1542 1543 1543 1543 1544 1544 1545 1545
1466 1456 1457 1459 1467 1471 1468 1486 1470 1463 1466 1469 1473 1477 1482 1487 1493 1498 1503 1508 1511 1513 1516 1519 1520 1523 1525 1527 1529 1531 1532 1533 1534 1535 1536 1536 1537 1538 1538 1539 1540 1541 1541 1542 1542 1542 1542 1543 1543
1457 1452 1454 1458 1465 1472 1468 1477 1472 1460 1467 1465 1468 1472 1477 1482 1487 1493 1498 1503 1507 1510 1513 1515 1518 1520 1522 1524 1526 1528 1530 1531 1532 1533 1534 1535 1535 1536 1536 1537 1538 1539 1539 1540 1540 1540 1541 1541 1541
1450 1454 1456 1458 1464 1483 1471 1475 1475 1461 1461 1460 1463 1468 1472 1477 1483 1488 1494 1499 1503 1507 1510 1512 1514 1517 1519 1521 1523 1525 1527 1529 1530 1531 1532 1532 1533 1534 1534 1535 1536 1537 1537 1538 1538 1538 1538 1538 1538
1452 1465 1481 1486 1485 1483 1463 1469 1468 1454 1452 1454 1459 1464 1469 1474 1479 1485 1490 1495 1499 1503 1507 1509 1511 1513 1516 1518 1520 1523 1525 1526 1528 1529 1530 1531 1532 1532 1533 1534 1534 1534 1535 1535 1535 1536 1536 1536 1536
1452 1458 1481 1496 1493 1479 1464 1472 1461 1450 1449 1452 1456 1461 1466 1471 1476 1481 1486 1491 1495 1499 1503 1506 1508 1510 1513 1515 1517 1520 1522 1524 1525 1526 1528 1529 1530 1531 1532 1532 1532 1532 1532 1533 1533 1534 1534 1534 1534
1452 1453 1449 1464 1472 1481 1474 1467 1457 1449 1450 1452 1455 1459 1464 1468 1472 1477 1482 1487 1492 1496 1499 1502 1505 1507 1510 1512 1515 1517 1519 1521 1522 1524 1525 1526 1528 1529 1529 1529 1530 1530 1530 1531 1531 1531 1532 1532 1532
1443 1445 1453 1463 1480 1486 1475 1471 1468 1458 1456 1455 1456 1459 1463 1467 1471 1475 1480 1484 1489 1493 1496 1500 1502 1504 1507 1510 1512 1514 1516 1517 1519 1521 1523 1524 1525 1526 1527 1527 1527 1527 1528 1528 1529 1529 1529 1530 1530
1445 1449 1451 1456 1459 1476 1483 1479 1453 1455 1454 1455 1457 1459 1462 1466 1470 1474 1477 1482 1487 1491 1494 1497 1500 1502 1505 1507 1509 1511 1513 1515 1516 1518 1519 1521 1522 1523 1524 1524 1524 1525 1525 1526 1526 1527 1527 1527 1528
1436 1441 1447 1464 1466 1462 1469 1474 1449 1452 1453 1455 1457 1460 1464 1466 1470 1473 1477 1481 1486 1489 1492 1495 1498 1500 1502 1504 1506 1508 1510 1512 1513 1515 1516 1518 1519 1520 1520 1521 1522 1522 1523 1523 1523 1524 1525 1525 1525